Вернуться в каталог

STARLINK-35129

АктивенСвязьVLEO
NORAD 66077·PAYLOAD·🇺🇸 United States

Запущен Oct 19, 2025 с Cape Canaveral Space Force Station

Loading…

Ближайшие Пролёты (ближайшие 24 часа)

TLE

СвежийSource: CelesTrak SupGP

Эпоха: Sep 15, 2026, 02:43 UTC

1 66077C 25235V   26258.11368056 -.00018121  00000+0 -53546-3 0  2584
2 66077  53.1565  82.8575 0001204  86.8140 112.2849 15.34395122    15

Отслеживайте STARLINK-35129 в реальном времени с AllMySat

Download on the App Store